User: anonymous
Location: Muenchen
(48.1800°N, 11.5800°E)
Time: 01:29:20
(UTC+02:00)
Language:

Iridium 37 - Orbit

View from above orbital plane
View from above orbital plane
View from above satellite
View from above satellite

Ground track
Ground track

The orbit data is extracted from the following two-line orbital elements,

1 24968U 97056D   14110.41759102  .00000543  00000-0  18667-3 0  7757
2 24968 086.3954 081.1330 0002209 101.1302 259.0142 14.34213881867169
Epoch (UTC): 20 April 2014 10:01:19
Eccentricity: 0.0002209
inclination: 86.3954°
perigee height: 776 km
apogee height: 779 km
right ascension of ascending node: 81.1330°
argument of perigee: 101.1302°
revolutions per day: 14.34213881
mean anomaly at epoch: 259.0142°
orbit number at epoch: 86716

The dashed part of the orbit path shows where the satellite is in the earth's shadow,  

DLR